2017-008AQ

Last updated on Tue Feb 28 2017 00:15:03 GMT+0000 (Coordinated Universal Time)

1 41986U 17008AQ 17058.89634423 .00001639 00000-0 75590-4 0 9993 2 41986 97.5101 120.5044 0007524 208.4825 151.6006 15.21671305 1232

Satellite not in orbit

2017-008AQ